[[{"header":{"parameterUnit":"m.s-1","parameterCategory":2,"la1":30.2991,"la2":30.254,"lo1":-89.0895,"lo2":-89.0444,"dy":0.0017,"dx":0.0017,"nx":28,"ny":28,"refTime":"2024-04-23T21:00:00:Z","depth":"0","parameterNumber":2,"parameterNumberName":"U-component_of_CURRENTS"},"data":[0,0,0,0,0,0,0,0,0,0,0,0,0,0,0,0,0,0,0,0,0,0,0,0,0,0,0,0,0,0,0,0,0,0,0,0,0,0,0,0,0,0,0,0,0,0,0,0,0,0,0,0,0,0,0,0,0,0,-0.2997,-0.2998,0,-0.3013,-0.3013,-0.3013,-0.2937,-0.2935,-0.2933,-0.2931,-0.2856,-0.2856,-0.2856,0,0,0,0,0,0,0,0,0,0,0,0,0,-0.2949,-0.2949,-0.2997,-0.2998,-0.2998,-0.3013,-0.3013,-0.3013,-0.2938,-0.2935,-0.2933,-0.293,-0.2856,-0.2856,-0.2856,0,0,0,0,0,0,0,0,0,0,0,0,0,-0.2966,-0.295,-0.2997,-0.2964,-0.2961,-0.3013,-0.3013,-0.3013,-0.2938,-0.2935,-0.2932,-0.2929,-0.2856,-0.2856,-0.2856,-0.2915,0,0,-0.2855,-0.2855,0,0,0,0,0,0,0,0,-0.2965,-0.2967,-0.2968,-0.2966,-0.2963,-0.2972,-0.2968,-0.2976,-0.2939,-0.2945,-0.2931,-0.2928,-0.289,-0.2887,-0.2895,-0.2911,-0.2908,-0.2855,-0.2855,-0.2855,-0.2855,0,0,0,0,0,0,0,-0.2964,-0.2966,-0.3001,-0.2969,-0.2966,-0.2964,-0.2962,-0.297,-0.2931,-0.2944,-0.2939,-0.2945,-0.2887,-0.2895,-0.2892,-0.2907,-0.2855,-0.2855,-0.2855,-0.2855,-0.2914,-0.2915,0,0,0,0,0,0,-0.2967,-0.2966,-0.3001,-0.3002,-0.2959,-0.2967,-0.2965,-0.297,-0.2932,-0.2925,-0.2947,-0.2941,-0.2897,-0.2893,-0.2889,-0.2937,-0.2855,-0.2855,-0.2854,-0.2912,-0.2914,-0.2916,0,0,0,0,0,0,-0.2966,-0.297,-0.3,-0.2985,-0.2989,-0.2971,-0.2978,-0.2972,-0.2963,-0.2937,-0.2926,-0.2941,-0.2894,-0.2889,-0.2885,-0.2934,-0.2854,-0.2854,-0.291,-0.2913,-0.2915,-0.3046,0,0,0,0,0,0,-0.2964,-0.297,-0.2971,-0.2986,-0.299,-0.3025,-0.2981,-0.2975,-0.2974,-0.2965,-0.2929,-0.292,-0.2892,-0.2886,-0.2885,-0.2932,-0.2854,-0.2908,-0.2911,-0.2914,-0.304,-0.3053,-0.3064,0,0,0,0,0,-0.2963,-0.2975,-0.2971,-0.2975,-0.2994,-0.3026,-0.3028,-0.3004,-0.2976,-0.2982,-0.2954,-0.292,-0.2905,-0.2888,-0.2886,-0.2934,-0.2906,-0.291,-0.2914,-0.3035,-0.3051,-0.3064,0,0,0,0,0,0,-0.2943,-0.2969,-0.2965,-0.298,-0.3001,-0.3013,-0.3016,-0.301,-0.2998,-0.2982,-0.2944,-0.2935,-0.2953,-0.2924,-0.2905,-0.2958,-0.29,-0.2904,-0.2993,-0.3007,-0.3019,-0.3032,-0.2854,0,0,0,0,0,-0.2947,-0.2964,-0.2989,-0.3,-0.3011,-0.3017,-0.3025,-0.3019,-0.3016,-0.3006,-0.2985,-0.2967,-0.2976,-0.297,-0.2966,-0.2999,-0.298,-0.3027,-0.3039,-0.305,-0.3058,-0.3081,-0.3097,-0.2928,-0.2928,-0.2928,0,0,-0.294,-0.2959,-0.2965,-0.2998,-0.3007,-0.305,-0.3012,-0.3032,-0.3069,-0.3003,-0.3027,-0.301,-0.2993,-0.3028,-0.3033,-0.3004,-0.3088,-0.3055,-0.3064,-0.3067,-0.3087,-0.3103,-0.3118,-0.2931,-0.293,-0.293,0,0,-0.2955,-0.2955,-0.2983,-0.3011,-0.3043,-0.3062,-0.307,-0.3091,-0.3093,-0.3127,-0.3095,-0.3114,-0.3105,-0.3124,-0.3129,-0.321,-0.3153,-0.319,-0.3266,-0.3289,-0.3303,-0.3316,-0.3318,-0.3329,-0.3196,-0.3196,-0.3197,0,-0.2941,-0.2983,-0.2995,-0.304,-0.3067,-0.3072,-0.3118,-0.3145,-0.3162,-0.3176,-0.3141,-0.3171,-0.3168,-0.3231,-0.3258,-0.3245,-0.3219,-0.3216,-0.3307,-0.3319,-0.3329,-0.3328,-0.3339,-0.3203,-0.3202,-0.3202,-0.3201,0,-0.2993,-0.3023,-0.3041,-0.3105,-0.3143,-0.3175,-0.3226,-0.3255,-0.3259,-0.3278,-0.3321,-0.3323,-0.3332,-0.3352,-0.3333,-0.341,-0.3355,-0.3323,-0.3274,-0.3354,-0.3347,-0.3357,-0.3213,-0.321,-0.3208,-0.3207,0,0,-0.2946,-0.3055,-0.3056,-0.311,-0.3175,-0.3222,-0.3289,-0.3354,-0.3399,-0.3416,-0.3466,-0.3515,-0.349,-0.3495,-0.3482,-0.3516,-0.3591,-0.3449,-0.3447,-0.3458,-0.361,-0.3312,-0.3293,-0.3555,-0.3557,-0.3559,-0.3578,0,-0.2969,-0.3076,-0.312,-0.3219,-0.3277,-0.3318,-0.3387,-0.345,-0.348,-0.3531,-0.3551,-0.3586,-0.3552,-0.3558,-0.3593,-0.3588,-0.3618,-0.3587,-0.3523,-0.3522,-0.3253,-0.3295,-0.3134,-0.3112,-0.3586,-0.3588,-0.3589,0,-0.2982,-0.3068,-0.3168,-0.3296,-0.3323,-0.3386,-0.349,-0.3551,-0.3621,-0.3637,-0.3666,-0.3659,-0.3724,-0.3674,-0.3715,-0.368,-0.3658,-0.3652,-0.3652,-0.333,-0.3238,-0.3106,-0.311,-0.3079,-0.3602,-0.3601,-0.36,0,-0.295,-0.3085,-0.3174,-0.3216,-0.3366,-0.3417,-0.3485,-0.3571,-0.361,-0.3692,-0.3704,-0.3763,-0.3767,-0.378,-0.3731,-0.3731,-0.374,-0.3744,-0.3461,-0.3441,-0.3268,-0.3224,-0.3236,-0.3776,-0.3776,-0.3776,-0.3776,0,-0.294,-0.3002,-0.3173,-0.3223,-0.3339,-0.3431,-0.3516,-0.359,-0.3655,-0.3686,-0.3738,-0.3751,-0.3785,-0.3768,-0.3756,-0.3592,-0.3752,-0.347,-0.3421,-0.3303,-0.3264,-0.3193,-0.3239,-0.3776,-0.3776,-0.3776,-0.3776,0,-0.2862,-0.2963,-0.3084,-0.3266,-0.3322,-0.34,-0.3515,-0.3561,-0.3631,-0.3669,-0.3685,-0.3737,-0.3683,-0.3667,-0.3673,-0.3563,-0.3405,-0.34,-0.3228,-0.3151,-0.2792,-0.285,-0.2783,-0.2709,-0.3107,-0.31,-0.3094,0,-0.2825,-0.288,-0.3099,-0.3163,-0.3238,-0.3355,-0.3413,-0.3528,-0.3554,-0.3637,-0.3635,-0.3608,-0.3539,-0.3397,-0.3215,-0.3078,-0.3138,-0.2837,-0.2801,-0.2728,-0.2764,-0.2828,-0.2781,-0.2668,-0.2659,-0.2652,-0.2646,0,-0.2756,-0.2831,-0.2946,-0.3085,-0.3177,-0.3271,-0.3357,-0.3379,-0.3477,-0.3486,-0.3486,-0.345,-0.3255,-0.2984,-0.2722,-0.2643,-0.2729,-0.2664,-0.2685,-0.247,-0.2458,-0.2374,-0.2708,-0.2578,-0.2585,-0.259,-0.2594,-0.2596,-0.2676,-0.2736,-0.2872,-0.2984,-0.3085,-0.3132,-0.3066,-0.3165,-0.3163,-0.3069,-0.3214,-0.3006,-0.2811,-0.2382,-0.2288,-0.1998,-0.217,-0.1948,-0.2048,-0.2137,-0.1977,-0.2094,-0.1818,-0.182,-0.1822,-0.1824,-0.1825,0,-0.2539,-0.2623,-0.2744,-0.2841,-0.2835,-0.2941,-0.2955,-0.2821,-0.2709,-0.272,-0.2623,-0.2327,-0.205,-0.1898,-0.1601,-0.1467,-0.1523,-0.1462,-0.1631,-0.1629,-0.1812,-0.1694,-0.1259,-0.1259,-0.1259,-0.1259,-0.1259,-0.1259,-0.2463,-0.2512,-0.2591,-0.2553,-0.2568,-0.2362,-0.2277,-0.2189,-0.2103,-0.1886,-0.1675,-0.1551,-0.1528,-0.1558,-0.1373,-0.1292,-0.1351,-0.1251,-0.1349,-0.1589,-0.1648,-0.1704,-0.1603,-0.1156,-0.1156,-0.1109,-0.1109,-0.1109]},{"header":{"parameterUnit":"m.s-1","parameterCategory":2,"la1":30.2991,"la2":30.254,"lo1":-89.0895,"lo2":-89.0444,"dy":0.0017,"dx":0.0017,"nx":28,"ny":28,"refTime":"2024-04-23T21:00:00:Z","depth":"0","parameterNumber":3,"parameterNumberName":"V-component_of_CURRENTS"},"data":[0,0,0,0,0,0,0,0,0,0,0,0,0,0,0,0,0,0,0,0,0,0,0,0,0,0,0,0,0,0,0,0,0,0,0,0,0,0,0,0,0,0,0,0,0,0,0,0,0,0,0,0,0,0,0,0,0,0,-0.0663,-0.0663,0,-0.067,-0.067,-0.067,-0.0603,-0.0601,-0.0599,-0.0597,-0.0486,-0.0485,-0.0483,0,0,0,0,0,0,0,0,0,0,0,0,0,-0.058,-0.0582,-0.0663,-0.0663,-0.0663,-0.067,-0.067,-0.067,-0.0603,-0.0601,-0.0599,-0.0597,-0.0486,-0.0485,-0.0483,0,0,0,0,0,0,0,0,0,0,0,0,0,-0.0605,-0.0583,-0.0663,-0.0631,-0.0628,-0.067,-0.067,-0.067,-0.0604,-0.0601,-0.0598,-0.0595,-0.0487,-0.0485,-0.0483,-0.0527,0,0,-0.0477,-0.0476,0,0,0,0,0,0,0,0,-0.0603,-0.0608,-0.0635,-0.0633,-0.063,-0.0633,-0.06,-0.0616,-0.0604,-0.0613,-0.0597,-0.0594,-0.0526,-0.0521,-0.053,-0.0521,-0.0517,-0.0477,-0.0476,-0.0475,-0.0475,0,0,0,0,0,0,0,-0.0602,-0.0607,-0.0665,-0.0636,-0.0633,-0.0612,-0.0613,-0.0603,-0.0582,-0.0612,-0.0607,-0.0609,-0.0523,-0.0532,-0.0526,-0.0515,-0.0477,-0.0475,-0.0474,-0.0474,-0.0484,-0.0486,0,0,0,0,0,0,-0.0606,-0.0606,-0.0665,-0.0666,-0.061,-0.0616,-0.0616,-0.0635,-0.0585,-0.0576,-0.0611,-0.0606,-0.0536,-0.0529,-0.0522,-0.0527,-0.0475,-0.0473,-0.0472,-0.0483,-0.0485,-0.0486,0,0,0,0,0,0,-0.0604,-0.0612,-0.0665,-0.0635,-0.064,-0.062,-0.0641,-0.0636,-0.0632,-0.0586,-0.0574,-0.0611,-0.0534,-0.0524,-0.051,-0.0523,-0.0473,-0.0471,-0.0481,-0.0484,-0.0486,-0.0564,0,0,0,0,0,0,-0.0602,-0.0612,-0.0627,-0.0636,-0.0642,-0.0695,-0.0644,-0.0638,-0.0639,-0.0631,-0.0582,-0.057,-0.0531,-0.0513,-0.0508,-0.0519,-0.0469,-0.048,-0.0482,-0.0485,-0.0559,-0.0568,-0.0576,0,0,0,0,0,-0.06,-0.0642,-0.0628,-0.0635,-0.0664,-0.0696,-0.0698,-0.0673,-0.0641,-0.0656,-0.0615,-0.057,-0.0526,-0.0513,-0.0507,-0.0518,-0.0478,-0.0482,-0.0485,-0.0556,-0.0567,-0.0576,0,0,0,0,0,0,-0.0619,-0.064,-0.0624,-0.0671,-0.068,-0.0685,-0.07,-0.0682,-0.0667,-0.065,-0.0594,-0.0581,-0.057,-0.0544,-0.0531,-0.053,-0.0493,-0.0496,-0.055,-0.0559,-0.0568,-0.0582,-0.0468,0,0,0,0,0,-0.0632,-0.0664,-0.0673,-0.0709,-0.0716,-0.0707,-0.0715,-0.0702,-0.0691,-0.0681,-0.0647,-0.061,-0.0586,-0.057,-0.0549,-0.0558,-0.0514,-0.056,-0.0568,-0.0575,-0.0584,-0.0567,-0.0575,-0.0497,-0.0497,-0.0497,0,0,-0.065,-0.0664,-0.0682,-0.0714,-0.0717,-0.0751,-0.0705,-0.0728,-0.0743,-0.0672,-0.0678,-0.064,-0.0595,-0.0596,-0.0589,-0.057,-0.0566,-0.0579,-0.0586,-0.0591,-0.0571,-0.0579,-0.0585,-0.0499,-0.0499,-0.0498,0,0,-0.0711,-0.0715,-0.0761,-0.0775,-0.0789,-0.0787,-0.0794,-0.08,-0.0783,-0.0793,-0.0738,-0.0711,-0.0687,-0.0655,-0.0634,-0.0681,-0.0611,-0.0673,-0.0725,-0.0709,-0.0715,-0.072,-0.0632,-0.0628,-0.0677,-0.0677,-0.0678,0,-0.0727,-0.0787,-0.0779,-0.0824,-0.0843,-0.0806,-0.0856,-0.0847,-0.0843,-0.0837,-0.0801,-0.0762,-0.0715,-0.0708,-0.0714,-0.0698,-0.0658,-0.0688,-0.0719,-0.0723,-0.0727,-0.0636,-0.0631,-0.0682,-0.0681,-0.0681,-0.068,0,-0.082,-0.0862,-0.0892,-0.0932,-0.0953,-0.0991,-0.0978,-0.0981,-0.095,-0.0934,-0.0918,-0.086,-0.0834,-0.0814,-0.0772,-0.078,-0.0729,-0.073,-0.0692,-0.0739,-0.064,-0.0634,-0.0688,-0.0686,-0.0685,-0.0684,0,0,-0.0867,-0.0943,-0.095,-0.0987,-0.1011,-0.1043,-0.1062,-0.1075,-0.1084,-0.1049,-0.1065,-0.1,-0.0956,-0.0931,-0.0876,-0.0854,-0.0816,-0.0808,-0.0805,-0.0716,-0.0731,-0.0537,-0.051,-0.0832,-0.0833,-0.0833,-0.0635,0,-0.0935,-0.1047,-0.1059,-0.1148,-0.1203,-0.1179,-0.1203,-0.1201,-0.1175,-0.1179,-0.1103,-0.1088,-0.1004,-0.0987,-0.0955,-0.0869,-0.0811,-0.0866,-0.0703,-0.0696,-0.0516,-0.0502,-0.0432,-0.0237,-0.0628,-0.0627,-0.0626,0,-0.1014,-0.1081,-0.1192,-0.1262,-0.128,-0.1317,-0.1344,-0.1359,-0.1336,-0.1311,-0.1276,-0.1219,-0.116,-0.1097,-0.0948,-0.0991,-0.0863,-0.078,-0.0771,-0.0563,-0.0492,-0.0263,-0.021,-0.0049,-0.0615,-0.0616,-0.0617,0,-0.1062,-0.1165,-0.1258,-0.1286,-0.1359,-0.1386,-0.1404,-0.1399,-0.141,-0.1391,-0.1398,-0.1319,-0.128,-0.1149,-0.0926,-0.0957,-0.0746,-0.077,-0.0457,-0.044,-0.0331,-0.0303,-0.0103,-0.0657,-0.0657,-0.0658,-0.0658,0,-0.1132,-0.1201,-0.1288,-0.1342,-0.1431,-0.1448,-0.1509,-0.1507,-0.1511,-0.1539,-0.1464,-0.1458,-0.13,-0.115,-0.096,-0.0647,-0.0753,-0.0444,-0.0382,-0.0348,-0.0325,-0.014,-0.0103,-0.065,-0.0652,-0.0653,-0.0655,0,-0.1175,-0.1231,-0.1347,-0.1441,-0.1464,-0.1525,-0.1575,-0.1613,-0.16,-0.1639,-0.1636,-0.1558,-0.1343,-0.1101,-0.0859,-0.0661,-0.026,-0.0256,-0.0173,-0.0104,0.0318,0.0347,0.062,0.0737,0.0085,0.0091,0.0096,0,-0.1203,-0.1275,-0.1418,-0.1481,-0.1524,-0.16,-0.1646,-0.1654,-0.1691,-0.1688,-0.1716,-0.1535,-0.1363,-0.088,-0.0504,-0.0073,0.0007,0.0233,0.0186,0.0387,0.046,0.0459,0.0533,0.0312,0.0318,0.0323,0.0327,0,-0.1258,-0.1318,-0.1422,-0.1556,-0.1632,-0.1719,-0.178,-0.1819,-0.183,-0.1818,-0.1766,-0.1619,-0.1134,-0.0622,-0.0029,0.0196,0.0367,0.0357,0.0499,0.0623,0.0692,0.0819,0.0181,0.0374,0.0369,0.0366,0.0363,0.0361,-0.1284,-0.1378,-0.1513,-0.1636,-0.1728,-0.1821,-0.1833,-0.1895,-0.1911,-0.182,-0.1729,-0.1317,-0.0685,0.0158,0.0402,0.0924,0.0796,0.103,0.1046,0.1025,0.1147,0.0676,0.0975,0.0974,0.0973,0.0972,0.0971,0,-0.131,-0.1429,-0.1568,-0.1712,-0.1799,-0.1831,-0.1902,-0.1875,-0.1855,-0.164,-0.1453,-0.0503,0.0116,0.0695,0.1353,0.158,0.1563,0.165,0.1598,0.1637,0.1173,0.1193,0.163,0.163,0.1629,0.1629,0.1629,0.1629,-0.1328,-0.1476,-0.1576,-0.1736,-0.1805,-0.1799,-0.1804,-0.1787,-0.1595,-0.1111,-0.0457,0.007,0.0846,0.1551,0.2023,0.2052,0.2178,0.2175,0.2248,0.1854,0.1793,0.1735,0.1764,0.2314,0.2315,0.2686,0.2689,0.2692]}],[{"header":{"parameterUnit":"m.s-1","parameterCategory":2,"la1":30.2991,"la2":30.254,"lo1":-89.0895,"lo2":-89.0444,"dy":0.0017,"dx":0.0017,"nx":28,"ny":28,"refTime":"2024-04-23T21:00:00:Z","depth":"2","parameterNumber":2,"parameterNumberName":"U-component_of_CURRENTS"},"data":[0,0,0,0,0,0,0,0,0,0,0,0,0,0,0,0,0,0,0,0,0,0,0,0,0,0,0,0,0,0,0,0,0,0,0,0,0,0,0,0,0,0,0,0,0,0,0,0,0,0,0,0,0,0,0,0,0,0,-0.2036,-0.2037,0,-0.2144,-0.2146,-0.2147,-0.2187,-0.2186,-0.2186,-0.2186,-0.2311,-0.2314,-0.2318,0,0,0,0,0,0,0,0,0,0,0,0,0,-0.1952,-0.1953,-0.2036,-0.2037,-0.2039,-0.2144,-0.2146,-0.2147,-0.2187,-0.2186,-0.2186,-0.2185,-0.231,-0.2314,-0.2318,0,0,0,0,0,0,0,0,0,0,0,0,0,-0.2018,-0.1954,-0.2036,-0.2071,-0.2075,-0.2144,-0.2146,-0.2148,-0.2187,-0.2186,-0.2186,-0.2185,-0.2308,-0.2313,-0.2319,-0.2365,0,0,-0.2336,-0.2338,0,0,0,0,0,0,0,0,-0.2014,-0.2021,-0.2065,-0.2069,-0.2074,-0.2151,-0.2162,-0.2221,-0.2187,-0.2145,-0.2186,-0.2185,-0.2259,-0.2269,-0.2291,-0.2371,-0.2376,-0.2336,-0.234,-0.2342,-0.2344,0,0,0,0,0,0,0,-0.2009,-0.2017,-0.2079,-0.2066,-0.2071,-0.2112,-0.212,-0.2174,-0.2205,-0.2149,-0.2152,-0.2163,-0.2262,-0.2285,-0.2294,-0.2378,-0.2336,-0.2341,-0.2345,-0.2347,-0.2489,-0.2489,0,0,0,0,0,0,-0.1991,-0.2012,-0.2076,-0.2083,-0.2041,-0.2113,-0.2122,-0.2127,-0.2204,-0.2215,-0.2164,-0.2165,-0.2276,-0.2287,-0.2298,-0.2343,-0.2342,-0.2347,-0.235,-0.2488,-0.2489,-0.2489,0,0,0,0,0,0,-0.1989,-0.1996,-0.2072,-0.205,-0.2062,-0.2115,-0.2121,-0.213,-0.2164,-0.2215,-0.2226,-0.2189,-0.2276,-0.2291,-0.2357,-0.2349,-0.235,-0.2355,-0.2488,-0.2488,-0.2489,-0.2443,0,0,0,0,0,0,-0.1986,-0.1994,-0.199,-0.2048,-0.2063,-0.2111,-0.2121,-0.2132,-0.2171,-0.2174,-0.2241,-0.2251,-0.2277,-0.2348,-0.2362,-0.2357,-0.2359,-0.2487,-0.2488,-0.2489,-0.2444,-0.2442,-0.244,0,0,0,0,0,-0.1982,-0.1986,-0.1989,-0.1997,-0.2056,-0.2112,-0.2123,-0.2159,-0.2173,-0.2188,-0.2237,-0.2249,-0.2362,-0.2354,-0.237,-0.2366,-0.2487,-0.2488,-0.2489,-0.2444,-0.2442,-0.244,0,0,0,0,0,0,-0.1954,-0.1992,-0.1997,-0.2012,-0.2054,-0.2118,-0.2134,-0.2168,-0.2221,-0.2225,-0.2274,-0.2288,-0.2322,-0.2367,-0.2357,-0.2409,-0.242,-0.2424,-0.238,-0.2379,-0.2377,-0.2387,-0.2364,0,0,0,0,0,-0.1942,-0.1952,-0.1999,-0.2012,-0.2027,-0.2083,-0.211,-0.2142,-0.2196,-0.2219,-0.2268,-0.2315,-0.234,-0.2379,-0.2405,-0.2467,-0.2481,-0.2469,-0.2467,-0.2465,-0.2485,-0.2496,-0.2496,-0.2493,-0.2493,-0.2493,0,0,-0.1936,-0.1958,-0.1964,-0.2006,-0.2037,-0.2075,-0.2098,-0.2143,-0.2182,-0.2226,-0.2289,-0.2304,-0.2348,-0.2385,-0.2407,-0.2429,-0.247,-0.2467,-0.2465,-0.2486,-0.2497,-0.2497,-0.2497,-0.2493,-0.2493,-0.2493,0,0,-0.1937,-0.1944,-0.1954,-0.1987,-0.2035,-0.2073,-0.2088,-0.2157,-0.2185,-0.2245,-0.2266,-0.2293,-0.2362,-0.2387,-0.2407,-0.2425,-0.2439,-0.2427,-0.2455,-0.2464,-0.2464,-0.2464,-0.2459,-0.246,-0.2451,-0.2451,-0.2451,0,-0.1927,-0.1948,-0.1969,-0.1993,-0.2028,-0.2072,-0.211,-0.2147,-0.2234,-0.2264,-0.2255,-0.2333,-0.2357,-0.2408,-0.2403,-0.2418,-0.2427,-0.2454,-0.2459,-0.246,-0.2462,-0.2457,-0.2458,-0.2449,-0.2449,-0.2449,-0.2449,0,-0.1938,-0.1961,-0.1973,-0.2013,-0.2053,-0.2093,-0.2146,-0.2188,-0.222,-0.2259,-0.23,-0.2328,-0.2382,-0.2375,-0.2397,-0.2425,-0.2426,-0.243,-0.2459,-0.2459,-0.2454,-0.2456,-0.2446,-0.2446,-0.2447,-0.2447,0,0,-0.1906,-0.1967,-0.1973,-0.2003,-0.2071,-0.211,-0.2163,-0.2231,-0.2263,-0.2308,-0.2352,-0.2374,-0.2387,-0.2413,-0.2433,-0.2451,-0.2441,-0.2456,-0.2457,-0.2441,-0.2455,-0.2301,-0.2288,-0.2446,-0.2447,-0.2447,-0.2439,0,-0.1912,-0.1961,-0.1998,-0.2062,-0.2095,-0.2154,-0.2199,-0.2263,-0.2297,-0.2344,-0.237,-0.2397,-0.2404,-0.2414,-0.2435,-0.2439,-0.245,-0.2443,-0.2469,-0.247,-0.2324,-0.2286,-0.2124,-0.209,-0.2441,-0.2441,-0.2442,0,-0.1912,-0.1949,-0.2008,-0.2091,-0.2109,-0.2149,-0.223,-0.2284,-0.2348,-0.237,-0.2413,-0.2425,-0.247,-0.2451,-0.2483,-0.2481,-0.2473,-0.2467,-0.2466,-0.2347,-0.2319,-0.2154,-0.208,-0.2445,-0.2445,-0.2445,-0.2444,0,-0.1882,-0.1961,-0.2012,-0.204,-0.2132,-0.2166,-0.2215,-0.2285,-0.2321,-0.2386,-0.2404,-0.2456,-0.2469,-0.2484,-0.2451,-0.2484,-0.2447,-0.2491,-0.2346,-0.2336,-0.2216,-0.2192,-0.25,-0.25,-0.25,-0.25,-0.25,0,-0.1877,-0.1914,-0.1996,-0.2021,-0.2073,-0.2148,-0.2192,-0.225,-0.2311,-0.2338,-0.2415,-0.242,-0.2475,-0.2454,-0.245,-0.2369,-0.2443,-0.2339,-0.2318,-0.219,-0.2165,-0.2501,-0.2501,-0.2499,-0.2499,-0.2499,-0.2499,0,-0.1826,-0.1889,-0.1946,-0.2035,-0.2058,-0.2093,-0.2161,-0.218,-0.2264,-0.2301,-0.232,-0.2393,-0.236,-0.2358,-0.2349,-0.2336,-0.2287,-0.2234,-0.2061,-0.2017,-0.2191,-0.2189,-0.2132,-0.2127,-0.2122,-0.2118,-0.2115,0,-0.1802,-0.1827,-0.1924,-0.1944,-0.1977,-0.2027,-0.2044,-0.2138,-0.2158,-0.2259,-0.2264,-0.2263,-0.2213,-0.2135,-0.2068,-0.1998,-0.2107,-0.1842,-0.1873,-0.2165,-0.2151,-0.2157,-0.2162,-0.1705,-0.1699,-0.1694,-0.1689,0,-0.1744,-0.1783,-0.1816,-0.1855,-0.1883,-0.1918,-0.1955,-0.1971,-0.2075,-0.21,-0.2107,-0.2075,-0.199,-0.1823,-0.1717,-0.1678,-0.1844,-0.1731,-0.2074,-0.1801,-0.1755,-0.1744,-0.1765,-0.1642,-0.1647,-0.1651,-0.1653,-0.1655,-0.1678,-0.1678,-0.1718,-0.1738,-0.1771,-0.1786,-0.1771,-0.1811,-0.1825,-0.1839,-0.1885,-0.1786,-0.1747,-0.1491,-0.139,-0.1338,-0.1496,-0.1494,-0.1514,-0.1539,-0.1469,-0.1414,-0.1225,-0.1227,-0.1229,-0.1231,-0.1232,0,-0.1577,-0.1576,-0.1591,-0.1613,-0.1592,-0.1659,-0.1681,-0.1638,-0.1596,-0.1603,-0.1556,-0.1362,-0.1219,-0.1184,-0.1024,-0.1004,-0.1048,-0.0982,-0.1055,-0.1099,-0.114,-0.1054,-0.0698,-0.0697,-0.0695,-0.0694,0,0,-0.152,-0.1479,-0.1476,-0.1413,-0.1429,-0.1372,-0.1362,-0.1316,-0.1286,-0.1198,-0.1131,-0.1163,-0.1151,-0.093,-0.0867,-0.0755,-0.0929,-0.0717,-0.1142,-0.1271,-0.131,-0.1422,-0.1336,0,0,0,0,0]},{"header":{"parameterUnit":"m.s-1","parameterCategory":2,"la1":30.2991,"la2":30.254,"lo1":-89.0895,"lo2":-89.0444,"dy":0.0017,"dx":0.0017,"nx":28,"ny":28,"refTime":"2024-04-23T21:00:00:Z","depth":"2","parameterNumber":3,"parameterNumberName":"V-component_of_CURRENTS"},"data":[0,0,0,0,0,0,0,0,0,0,0,0,0,0,0,0,0,0,0,0,0,0,0,0,0,0,0,0,0,0,0,0,0,0,0,0,0,0,0,0,0,0,0,0,0,0,0,0,0,0,0,0,0,0,0,0,0,0,-0.014,-0.0139,0,-0.0059,-0.0058,-0.0057,0.002,0.0021,0.0021,0.0022,0.0236,0.0241,0.0246,0,0,0,0,0,0,0,0,0,0,0,0,0,-0.0163,-0.0163,-0.014,-0.0139,-0.0138,-0.0059,-0.0058,-0.0056,0.002,0.0021,0.0022,0.0022,0.0234,0.024,0.0246,0,0,0,0,0,0,0,0,0,0,0,0,0,-0.0122,-0.0163,-0.014,-0.0093,-0.0088,-0.006,-0.0058,-0.0056,0.002,0.0021,0.0022,0.0023,0.0232,0.0239,0.0247,0.0273,0,0,0.027,0.0273,0,0,0,0,0,0,0,0,-0.0125,-0.0121,-0.0101,-0.0096,-0.0091,-0.0031,0.0012,0.0059,0.0019,-0.0018,0.0022,0.0023,0.0156,0.017,0.0185,0.0283,0.0292,0.0271,0.0275,0.0278,0.0281,0,0,0,0,0,0,0,-0.0128,-0.0124,-0.0105,-0.01,-0.0094,-0.0054,-0.0047,0.0021,0.0067,-0.0015,-0.001,-0.0006,0.016,0.0177,0.0191,0.0295,0.027,0.0277,0.0282,0.0285,0.0476,0.0477,0,0,0,0,0,0,-0.0148,-0.0127,-0.0107,-0.0103,-0.0109,-0.0055,-0.0047,-0.0049,0.0064,0.008,-0.0007,-0.0003,0.0164,0.0182,0.0199,0.0245,0.0278,0.0285,0.029,0.0476,0.0477,0.0477,0,0,0,0,0,0,-0.0149,-0.0148,-0.0111,-0.0115,-0.0108,-0.0056,-0.0058,-0.0048,-0.0028,0.0067,0.0087,0.0003,0.0166,0.0188,0.0262,0.0254,0.0289,0.0296,0.0475,0.0476,0.0477,0.0331,0,0,0,0,0,0,-0.015,-0.0149,-0.0157,-0.0117,-0.0108,-0.0101,-0.0059,-0.0047,-0.0028,-0.0022,0.0082,0.0103,0.0168,0.025,0.0269,0.0265,0.0302,0.0474,0.0476,0.0477,0.0335,0.0327,0.032,0,0,0,0,0,-0.0152,-0.0169,-0.0158,-0.0155,-0.0121,-0.0102,-0.0094,-0.0051,-0.0029,-0.0027,0.0048,0.01,0.0271,0.0256,0.0279,0.0276,0.0474,0.0475,0.0476,0.0339,0.0329,0.032,0,0,0,0,0,0,-0.0179,-0.0162,-0.0148,-0.0159,-0.0137,-0.0091,-0.0087,-0.0059,-0.0002,0.001,0.0103,0.0129,0.0183,0.0259,0.0241,0.0339,0.0383,0.0389,0.0271,0.0262,0.0254,0.0236,0.0308,0,0,0,0,0,-0.0193,-0.0201,-0.0175,-0.0181,-0.0177,-0.0134,-0.0121,-0.0094,-0.0042,-0.0016,0.0054,0.014,0.0205,0.0256,0.0321,0.038,0.0442,0.0399,0.0391,0.0383,0.0387,0.0471,0.047,0.0481,0.0481,0.0481,0,0,-0.0204,-0.0197,-0.0199,-0.0188,-0.0167,-0.017,-0.0123,-0.0111,-0.0102,0.0,0.004,0.0105,0.0211,0.0264,0.0299,0.0331,0.0408,0.0385,0.0377,0.0385,0.0472,0.0471,0.047,0.0482,0.0482,0.0482,0,0,-0.0235,-0.0227,-0.0247,-0.0239,-0.0223,-0.0197,-0.0199,-0.0159,-0.013,-0.0088,-0.0017,0.0046,0.0153,0.0222,0.0273,0.0271,0.035,0.0295,0.0256,0.0337,0.0336,0.0336,0.0379,0.0384,0.0307,0.0307,0.0307,0,-0.0248,-0.0274,-0.0247,-0.0267,-0.0269,-0.0216,-0.0237,-0.0202,-0.014,-0.0112,-0.0089,0.0056,0.0132,0.0211,0.0205,0.025,0.0299,0.0271,0.0322,0.0324,0.0327,0.0372,0.038,0.03,0.0301,0.0302,0.0302,0,-0.0295,-0.0317,-0.033,-0.0339,-0.0333,-0.0344,-0.0304,-0.028,-0.0241,-0.0197,-0.0126,-0.0026,0.0069,0.0095,0.0148,0.0207,0.0233,0.0282,0.0332,0.0316,0.0366,0.0376,0.0291,0.0293,0.0295,0.0297,0,0,-0.0322,-0.0358,-0.0363,-0.0389,-0.0378,-0.038,-0.0364,-0.0331,-0.0309,-0.0242,-0.0201,-0.0103,-0.0044,0.0019,0.0097,0.0168,0.0205,0.0224,0.0232,0.0242,0.0357,0.0336,0.0346,0.0259,0.0261,0.0263,0.037,0,-0.0367,-0.0435,-0.043,-0.0479,-0.0514,-0.0469,-0.0456,-0.0413,-0.0357,-0.03,-0.0192,-0.0126,-0.0071,-0.0028,0.0047,0.0176,0.0232,0.017,0.0395,0.0401,0.0364,0.0358,0.0341,0.0433,0.0381,0.0383,0.0384,0,-0.0416,-0.046,-0.0531,-0.0564,-0.0571,-0.058,-0.0551,-0.0532,-0.0432,-0.0384,-0.0295,-0.0204,-0.0091,-0.0045,0.0154,0.0112,0.0214,0.0307,0.0315,0.0358,0.0401,0.0453,0.0456,0.0403,0.0401,0.04,0.0398,0,-0.0468,-0.0527,-0.0591,-0.0607,-0.0628,-0.0635,-0.0627,-0.0557,-0.0533,-0.0431,-0.0394,-0.0246,-0.0161,-0.0009,0.0165,0.017,0.0375,0.0419,0.049,0.0489,0.0554,0.0555,0.0545,0.0545,0.0545,0.0544,0.0544,0,-0.0529,-0.0578,-0.0623,-0.0665,-0.0715,-0.0699,-0.071,-0.0673,-0.0601,-0.0568,-0.0442,-0.0371,-0.0146,-0.0001,0.0151,0.0341,0.0369,0.0478,0.0522,0.0499,0.0494,0.0543,0.0542,0.0548,0.0547,0.0547,0.0546,0,-0.0582,-0.0612,-0.0693,-0.0739,-0.0751,-0.0787,-0.0785,-0.0773,-0.0707,-0.0656,-0.0628,-0.0448,-0.0254,-0.0054,0.0206,0.0321,0.0506,0.0559,0.049,0.0522,0.0568,0.0558,0.0668,0.0668,0.0669,0.0669,0.0669,0,-0.0617,-0.0669,-0.0758,-0.08,-0.0827,-0.0865,-0.0873,-0.0831,-0.0814,-0.0698,-0.0671,-0.0485,-0.0326,0.0017,0.0252,0.05,0.0515,0.0604,0.0616,0.0553,0.0585,0.0574,0.0564,0.0641,0.0641,0.0641,0.0641,0,-0.0689,-0.0721,-0.0788,-0.0877,-0.0919,-0.0957,-0.0969,-0.0974,-0.0904,-0.0834,-0.0702,-0.0565,-0.0247,0.0048,0.033,0.0472,0.0564,0.0609,0.0602,0.0593,0.0531,0.056,0.0552,0.0641,0.0641,0.0641,0.0641,0.0641,-0.0729,-0.0791,-0.0873,-0.095,-0.0996,-0.1032,-0.1059,-0.1027,-0.0985,-0.0856,-0.0726,-0.0482,-0.022,0.0217,0.0409,0.0578,0.0591,0.0658,0.0658,0.0657,0.0615,0.0556,0.0661,0.0661,0.0661,0.0661,0.0661,0,-0.0778,-0.0845,-0.093,-0.1021,-0.1071,-0.1079,-0.1102,-0.1083,-0.1019,-0.0835,-0.0665,-0.0356,-0.0032,0.0219,0.0495,0.0656,0.0656,0.0671,0.0659,0.0658,0.0658,0.0615,0.0661,0.0662,0.0662,0.0662,0,0,-0.0807,-0.0902,-0.0951,-0.1059,-0.1109,-0.116,-0.1173,-0.1108,-0.0983,-0.0779,-0.0573,-0.0298,0.0008,0.0208,0.0409,0.0547,0.0555,0.0548,0.0534,0.0495,0.0493,0.0638,0.057,0,0,0,0,0]}],[{"header":{"parameterUnit":"m.s-1","parameterCategory":2,"la1":30.2991,"la2":30.254,"lo1":-89.0895,"lo2":-89.0444,"dy":0.0017,"dx":0.0017,"nx":28,"ny":28,"refTime":"2024-04-23T21:00:00:Z","depth":"4","parameterNumber":2,"parameterNumberName":"U-component_of_CURRENTS"},"data":[0,0,0,0,0,0,0,0,0,0,0,0,0,0,0,0,0,0,0,0,0,0,0,0,0,0,0,0,0,0,0,0,0,0,0,0,0,0,0,0,0,0,0,0,0,0,0,0,0,0,0,0,0,0,0,0,0,0,-0.1383,-0.1383,0,-0.1419,-0.1419,-0.1419,-0.1438,-0.1438,-0.1438,-0.1439,-0.1472,-0.1473,-0.1474,0,0,0,0,0,0,0,0,0,0,0,0,0,-0.1335,-0.1336,-0.1383,-0.1384,-0.1384,-0.1419,-0.1419,-0.1419,-0.1438,-0.1438,-0.1439,-0.1439,-0.1472,-0.1473,-0.1474,0,0,0,0,0,0,0,0,0,0,0,0,0,-0.1361,-0.1336,-0.1383,-0.1399,-0.14,-0.1418,-0.1419,-0.1419,-0.1438,-0.1438,-0.1439,-0.1439,-0.1472,-0.1473,-0.1474,-0.1476,0,0,-0.1477,-0.1478,0,0,0,0,0,0,0,0,-0.1359,-0.1362,-0.1396,-0.1397,-0.14,-0.1425,-0.1415,-0.1439,-0.1438,-0.1422,-0.1439,-0.1439,-0.1457,-0.1459,-0.1464,-0.1478,-0.1479,-0.1477,-0.1478,-0.1479,-0.1479,0,0,0,0,0,0,0,-0.1358,-0.1361,-0.1396,-0.1396,-0.1399,-0.1405,-0.1409,-0.1419,-0.1437,-0.1424,-0.1426,-0.1431,-0.1458,-0.1463,-0.1465,-0.148,-0.1477,-0.1478,-0.1479,-0.1479,-0.1519,-0.1519,0,0,0,0,0,0,-0.1355,-0.1359,-0.1395,-0.1397,-0.1381,-0.1406,-0.141,-0.1416,-0.1437,-0.1441,-0.1431,-0.1432,-0.1461,-0.1463,-0.1466,-0.152,-0.1479,-0.148,-0.148,-0.1519,-0.1519,-0.152,0,0,0,0,0,0,-0.1354,-0.1358,-0.1393,-0.138,-0.1385,-0.1407,-0.1413,-0.1416,-0.1442,-0.1443,-0.1446,-0.1456,-0.1461,-0.1464,-0.1487,-0.152,-0.148,-0.1481,-0.1518,-0.1519,-0.1519,-0.1597,0,0,0,0,0,0,-0.1352,-0.1357,-0.1372,-0.138,-0.1386,-0.1414,-0.1413,-0.1417,-0.1445,-0.1447,-0.1465,-0.1467,-0.1461,-0.1485,-0.1488,-0.1521,-0.1482,-0.1518,-0.1518,-0.1519,-0.1594,-0.16,-0.1605,0,0,0,0,0,-0.1351,-0.1365,-0.1372,-0.1377,-0.1401,-0.1415,-0.1418,-0.1433,-0.1446,-0.1458,-0.1469,-0.1467,-0.1491,-0.1487,-0.149,-0.1524,-0.1517,-0.1518,-0.1519,-0.1591,-0.1599,-0.1605,0,0,0,0,0,0,-0.1351,-0.1368,-0.1377,-0.1396,-0.141,-0.1418,-0.1435,-0.1448,-0.1467,-0.1476,-0.1477,-0.148,-0.1511,-0.15,-0.1495,-0.1532,-0.1502,-0.1504,-0.1556,-0.1563,-0.1569,-0.1583,-0.1483,0,0,0,0,0,-0.1358,-0.1376,-0.1388,-0.1407,-0.1414,-0.1431,-0.1444,-0.1455,-0.1468,-0.1479,-0.1491,-0.1501,-0.1513,-0.1525,-0.1528,-0.1555,-0.1536,-0.1574,-0.1579,-0.1585,-0.1595,-0.1597,-0.1605,-0.1522,-0.1522,-0.1522,0,0,-0.1365,-0.1377,-0.1389,-0.1409,-0.1422,-0.1441,-0.1439,-0.1464,-0.1493,-0.1479,-0.1524,-0.1525,-0.1523,-0.155,-0.1563,-0.155,-0.1594,-0.1586,-0.159,-0.1599,-0.1599,-0.1607,-0.1615,-0.1523,-0.1523,-0.1523,0,0,-0.1375,-0.1397,-0.1411,-0.1426,-0.145,-0.1464,-0.1477,-0.1498,-0.1521,-0.1555,-0.1554,-0.1576,-0.1593,-0.1602,-0.1608,-0.1646,-0.1624,-0.1644,-0.1693,-0.1695,-0.1702,-0.1708,-0.1681,-0.1685,-0.1649,-0.1649,-0.1649,0,-0.1384,-0.1404,-0.1418,-0.1433,-0.1456,-0.1477,-0.1501,-0.1528,-0.1557,-0.1582,-0.1578,-0.1618,-0.1621,-0.166,-0.1674,-0.1664,-0.1647,-0.1672,-0.1705,-0.171,-0.1716,-0.1686,-0.1689,-0.1653,-0.1652,-0.1652,-0.1651,0,-0.1393,-0.1423,-0.1434,-0.1466,-0.1492,-0.1517,-0.1552,-0.1587,-0.162,-0.1642,-0.1692,-0.1695,-0.1716,-0.1723,-0.1716,-0.1758,-0.1727,-0.1713,-0.1693,-0.1729,-0.1695,-0.1697,-0.1658,-0.1657,-0.1656,-0.1655,0,0,-0.1376,-0.1431,-0.1438,-0.1462,-0.1516,-0.1532,-0.1594,-0.1646,-0.1686,-0.1723,-0.1769,-0.1804,-0.1808,-0.1813,-0.1808,-0.1819,-0.184,-0.1789,-0.1788,-0.1773,-0.1825,-0.1707,-0.1697,-0.1835,-0.1836,-0.1837,-0.1781,0,-0.1382,-0.1419,-0.1454,-0.1506,-0.1528,-0.1581,-0.1633,-0.1687,-0.1733,-0.1779,-0.1809,-0.1842,-0.1842,-0.1852,-0.187,-0.185,-0.185,-0.1855,-0.1783,-0.178,-0.1681,-0.1697,-0.184,-0.1782,-0.1783,-0.1783,-0.1783,0,-0.1373,-0.1404,-0.1452,-0.1527,-0.1543,-0.1584,-0.167,-0.1719,-0.1794,-0.1828,-0.1878,-0.1891,-0.1932,-0.1911,-0.1915,-0.1919,-0.1882,-0.1859,-0.1856,-0.1723,-0.1666,-0.174,-0.1785,-0.1785,-0.1785,-0.1785,-0.1784,0,-0.1334,-0.1404,-0.1447,-0.1471,-0.1554,-0.1598,-0.1652,-0.1734,-0.1778,-0.1857,-0.1885,-0.1935,-0.1949,-0.1942,-0.1916,-0.1914,-0.1895,-0.1878,-0.1733,-0.1723,-0.1814,-0.1807,-0.1866,-0.1866,-0.1867,-0.1867,-0.1867,0,-0.1312,-0.1348,-0.1434,-0.1451,-0.1507,-0.1579,-0.1645,-0.1706,-0.1788,-0.183,-0.1902,-0.1924,-0.1959,-0.1955,-0.1926,-0.1833,-0.1901,-0.1741,-0.1706,-0.1843,-0.1841,-0.1813,-0.1808,-0.1865,-0.1865,-0.1865,-0.1866,0,-0.125,-0.1313,-0.136,-0.1454,-0.1486,-0.1522,-0.1626,-0.1668,-0.1759,-0.1813,-0.1838,-0.1915,-0.1899,-0.1907,-0.1877,-0.1818,-0.1757,-0.1702,-0.1839,-0.1812,-0.1576,-0.1575,-0.1525,-0.1521,-0.1517,-0.1514,-0.1511,0,-0.1217,-0.1237,-0.1336,-0.1361,-0.1406,-0.1474,-0.152,-0.1635,-0.1676,-0.1789,-0.1799,-0.1827,-0.1854,-0.1717,-0.1744,-0.1664,-0.164,-0.1602,-0.1602,-0.1573,-0.1544,-0.1549,-0.1554,-0.1505,-0.1504,-0.1503,-0.1502,0,-0.1144,-0.1192,-0.1223,-0.1276,-0.133,-0.1391,-0.1465,-0.1485,-0.161,-0.1703,-0.1701,-0.1684,-0.1655,-0.1623,-0.157,-0.1522,-0.1633,-0.1562,-0.1569,-0.1568,-0.1547,-0.1524,-0.1533,-0.1489,-0.1491,-0.1492,-0.1493,0,-0.1083,-0.1085,-0.1133,-0.1165,-0.1238,-0.1285,-0.1343,-0.1384,-0.1439,-0.1566,-0.1556,-0.1588,-0.164,-0.1547,-0.151,-0.1445,-0.141,-0.1368,-0.1384,-0.1399,-0.1384,-0.134,-0.1186,0,0,0,0,0,-0.1012,-0.0997,-0.1018,-0.1061,-0.1134,-0.1181,-0.1293,-0.1359,-0.1477,-0.1431,-0.1489,-0.1455,-0.1397,-0.1417,-0.1313,-0.1436,-0.1414,-0.1312,-0.1376,-0.1416,-0.1431,-0.1424,0,0,0,0,0,0,-0.0962,-0.0972,-0.0972,-0.0964,-0.098,-0.106,-0.1134,-0.1224,-0.1205,-0.1317,-0.1282,-0.1357,-0.1308,-0.1411,-0.1276,-0.1277,-0.1287,-0.1331,-0.1327,-0.1407,-0.1421,-0.1433,-0.1432,0,0,0,0,0]},{"header":{"parameterUnit":"m.s-1","parameterCategory":2,"la1":30.2991,"la2":30.254,"lo1":-89.0895,"lo2":-89.0444,"dy":0.0017,"dx":0.0017,"nx":28,"ny":28,"refTime":"2024-04-23T21:00:00:Z","depth":"4","parameterNumber":3,"parameterNumberName":"V-component_of_CURRENTS"},"data":[0,0,0,0,0,0,0,0,0,0,0,0,0,0,0,0,0,0,0,0,0,0,0,0,0,0,0,0,0,0,0,0,0,0,0,0,0,0,0,0,0,0,0,0,0,0,0,0,0,0,0,0,0,0,0,0,0,0,-0.0128,-0.0128,0,-0.0099,-0.0098,-0.0098,-0.0062,-0.0062,-0.0061,-0.0061,0.0,0.0001,0.0002,0,0,0,0,0,0,0,0,0,0,0,0,0,-0.0127,-0.0127,-0.0128,-0.0128,-0.0128,-0.0099,-0.0098,-0.0098,-0.0062,-0.0062,-0.0061,-0.0061,-0.0,0.0001,0.0003,0,0,0,0,0,0,0,0,0,0,0,0,0,-0.0115,-0.0127,-0.0128,-0.0107,-0.0105,-0.0099,-0.0098,-0.0098,-0.0062,-0.0062,-0.0061,-0.006,-0.0001,0.0001,0.0003,-0.0,0,0,0.0008,0.0009,0,0,0,0,0,0,0,0,-0.0115,-0.0115,-0.0111,-0.0109,-0.0106,-0.0084,-0.0075,-0.0064,-0.0062,-0.0078,-0.0061,-0.006,-0.0026,-0.0022,-0.0017,0.0003,0.0005,0.0008,0.0009,0.001,0.0011,0,0,0,0,0,0,0,-0.0116,-0.0116,-0.0116,-0.011,-0.0108,-0.009,-0.0088,-0.0073,-0.0055,-0.0076,-0.0074,-0.0072,-0.0025,-0.0019,-0.0016,0.0006,0.0008,0.001,0.0011,0.0012,0.0038,0.0038,0,0,0,0,0,0,-0.0124,-0.0117,-0.0117,-0.0115,-0.011,-0.0091,-0.0088,-0.0091,-0.0056,-0.005,-0.0073,-0.0071,-0.0023,-0.0018,-0.0013,0.0002,0.001,0.0012,0.0013,0.0038,0.0038,0.0038,0,0,0,0,0,0,-0.0125,-0.0125,-0.0118,-0.0115,-0.0113,-0.0092,-0.0095,-0.0091,-0.0085,-0.0054,-0.0047,-0.0071,-0.0022,-0.0016,0.0001,0.0004,0.0013,0.0014,0.0039,0.0038,0.0038,0.0023,0,0,0,0,0,0,-0.0125,-0.0125,-0.0132,-0.0116,-0.0114,-0.0121,-0.0096,-0.0091,-0.0085,-0.0082,-0.005,-0.0044,-0.0021,-0.0002,0.0002,0.0007,0.0016,0.0039,0.0039,0.0038,0.0024,0.0022,0.002,0,0,0,0,0,-0.0125,-0.0139,-0.0133,-0.0133,-0.0124,-0.0121,-0.0119,-0.01,-0.0086,-0.009,-0.0063,-0.0045,-0.0003,-0.0001,0.0004,0.001,0.004,0.0039,0.0038,0.0024,0.0022,0.002,0,0,0,0,0,0,-0.0141,-0.0136,-0.0129,-0.0141,-0.0135,-0.0116,-0.0119,-0.0105,-0.0088,-0.0082,-0.0049,-0.0041,-0.0024,-0.0011,-0.001,0.0013,0.0021,0.0021,0.0008,0.0006,0.0005,-0.0007,0.0017,0,0,0,0,0,-0.0149,-0.0158,-0.0149,-0.0158,-0.0158,-0.0139,-0.0136,-0.0124,-0.0106,-0.0098,-0.0076,-0.0051,-0.0025,-0.0013,0.0006,0.0016,0.0046,0.0022,0.002,0.0018,0.0011,0.0085,0.009,0.0035,0.0035,0.0035,0,0,-0.0157,-0.0156,-0.016,-0.0162,-0.0155,-0.0163,-0.0136,-0.0136,-0.0135,-0.0094,-0.0089,-0.0058,-0.0024,-0.0007,0.0001,0.0005,0.0044,0.0017,0.0016,0.001,0.0085,0.009,0.0095,0.0034,0.0034,0.0035,0,0,-0.018,-0.0178,-0.0195,-0.0196,-0.0193,-0.0182,-0.0185,-0.0171,-0.0158,-0.0149,-0.0113,-0.0078,-0.0058,-0.002,0.0,-0.0003,0.0032,-0.0005,-0.002,0.0052,0.0057,0.0063,0.0087,0.0095,-0.0005,-0.0005,-0.0005,0,-0.0189,-0.0212,-0.0199,-0.0216,-0.0225,-0.0194,-0.0216,-0.0198,-0.0178,-0.0166,-0.0154,-0.009,-0.0059,-0.0015,-0.0016,-0.0004,0.0023,-0.0011,0.0052,0.0058,0.0064,0.0088,0.0097,-0.0006,-0.0005,-0.0005,-0.0005,0,-0.0225,-0.0246,-0.0257,-0.0271,-0.0274,-0.0289,-0.0268,-0.026,-0.0239,-0.0214,-0.0173,-0.0118,-0.0079,-0.0059,-0.0039,0.0014,0.0014,0.0044,0.0062,0.0069,0.0093,0.0102,-0.0007,-0.0006,-0.0006,-0.0006,0,0,-0.0241,-0.0278,-0.0282,-0.0308,-0.0309,-0.0319,-0.0313,-0.0301,-0.029,-0.0247,-0.0222,-0.0159,-0.0119,-0.0094,-0.0048,0.0013,0.0076,0.0037,0.0041,0.0066,0.0202,0.0171,0.0179,0.0125,0.0127,0.0128,0.0195,0,-0.0276,-0.0333,-0.0335,-0.0383,-0.0414,-0.0391,-0.039,-0.0367,-0.0332,-0.0297,-0.0213,-0.0175,-0.0134,-0.0109,-0.0037,0.0056,0.0103,0.0053,0.0185,0.0188,0.0167,0.019,0.0135,0.0203,0.0205,0.0206,0.0208,0,-0.0312,-0.0351,-0.0413,-0.0453,-0.0463,-0.0479,-0.0474,-0.0467,-0.0399,-0.0366,-0.0296,-0.0233,-0.0137,-0.0102,0.0063,0.0029,0.01,0.0171,0.0176,0.016,0.0177,0.0199,0.0225,0.0224,0.0223,0.0221,0.022,0,-0.0345,-0.0403,-0.0461,-0.0478,-0.0511,-0.0526,-0.0532,-0.049,-0.0479,-0.0407,-0.0379,-0.0257,-0.0188,-0.0064,0.0078,0.0074,0.0256,0.0276,0.0308,0.0305,0.0319,0.0313,0.0378,0.0378,0.0377,0.0377,0.0377,0,-0.0388,-0.0434,-0.0486,-0.0522,-0.0577,-0.0577,-0.0603,-0.0582,-0.0538,-0.0513,-0.0419,-0.0355,-0.017,-0.0043,0.0072,0.0219,0.0256,0.0303,0.0331,0.0306,0.0297,0.0325,0.0318,0.038,0.0379,0.0379,0.0378,0,-0.0417,-0.0452,-0.0526,-0.0582,-0.0601,-0.0641,-0.0666,-0.0667,-0.0624,-0.0584,-0.0562,-0.0411,-0.0243,-0.0079,0.0133,0.0207,0.035,0.0383,0.0315,0.0338,0.0343,0.0334,0.0424,0.0423,0.0423,0.0423,0.0423,0,-0.0438,-0.0482,-0.0574,-0.0617,-0.065,-0.0702,-0.0725,-0.0712,-0.0703,-0.0607,-0.0579,-0.0422,-0.0309,-0.0027,0.0133,0.0333,0.0357,0.0402,0.0394,0.0335,0.0353,0.0345,0.0336,0.0422,0.0422,0.0422,0.0422,0,-0.048,-0.0515,-0.0575,-0.0665,-0.0718,-0.0768,-0.0799,-0.0797,-0.0753,-0.0718,-0.0565,-0.0415,-0.0232,-0.0018,0.0128,0.0275,0.0366,0.04,0.0401,0.0394,0.0334,0.0351,0.0343,0.0421,0.0421,0.0422,0.0422,0,-0.0502,-0.0552,-0.0629,-0.0704,-0.077,-0.0809,-0.0826,-0.0792,-0.0772,-0.0659,-0.06,-0.0394,-0.026,-0.0049,0.0097,0.0228,0.0255,0.0281,0.0289,0.0292,0.0232,0.0136,0.0189,0,0,0,0,0,-0.0521,-0.0579,-0.0656,-0.074,-0.0802,-0.0837,-0.0857,-0.0854,-0.081,-0.0704,-0.0649,-0.0472,-0.0223,-0.0101,0.0027,0.0059,0.0245,0.0206,0.0271,0.0417,0.0418,0.0368,0,0,0,0,0,0,-0.0536,-0.0613,-0.0659,-0.0748,-0.0802,-0.0863,-0.0875,-0.0847,-0.0778,-0.0704,-0.0556,-0.0468,-0.0219,-0.0289,0.0026,0.0064,0.0115,0.0329,0.0331,0.0416,0.0417,0.0418,0.0367,0,0,0,0,0]}]]